| time (UTC) | temp F | wind direction | speed knots | gust knots | rain 1hr in | rain 24hr in | rain mn in | humidity % | barometer mb |
| 20260509024524 | 77 | 64 | 6.1 | 11.3 | 0.00 | 0.50 | 0.95 | 73 | 1017.3 |
| 20260509024010 | 77 | 68 | 0.0 | 9.6 | 0.00 | 0.50 | 0.95 | 75 | 1017.5 |
| 20260509023510 | 77 | 58 | 2.6 | 11.3 | 0.00 | 0.50 | 0.95 | 75 | 1017.3 |
| 20260509023011 | 77 | 53 | 2.6 | 11.3 | 0.00 | 0.50 | 0.95 | 75 | 1017.2 |
| 20260509022511 | 77 | 26 | 1.7 | 12.2 | 0.00 | 0.50 | 0.95 | 75 | 1017.2 |
| 20260509022011 | 78 | 70 | 0.0 | 12.2 | 0.00 | 0.50 | 0.95 | 75 | 1017.2 |
| 20260509021511 | 78 | 90 | 5.2 | 9.6 | 0.00 | 0.50 | 0.95 | 74 | 1017.3 |
| 20260509021011 | 78 | 87 | 7.8 | 12.2 | 0.00 | 0.50 | 0.95 | 74 | 1017.0 |
| 20260509020511 | 78 | 87 | 0.0 | 12.2 | 0.00 | 0.50 | 0.95 | 74 | 1016.9 |
| 20260509020010 | 78 | 101 | 3.5 | 9.6 | 0.00 | 0.50 | 0.95 | 73 | 1017.1 |
| 20260509015510 | 79 | 44 | 5.2 | 9.6 | 0.00 | 0.50 | 0.95 | 71 | 1017.0 |
| 20260509015010 | 79 | 73 | 0.0 | 11.3 | 0.00 | 0.50 | 0.95 | 72 | 1017.1 |
| 20260509014509 | 79 | 76 | 3.5 | 11.3 | 0.00 | 0.50 | 0.95 | 73 | 1016.9 |
| 20260509014009 | 78 | 89 | 3.5 | 11.3 | 0.00 | 0.50 | 0.95 | 74 | 1017.1 |
| 20260509013510 | 78 | 94 | 1.7 | 11.3 | 0.00 | 0.50 | 0.95 | 73 | 1016.8 |
| 20260509013010 | 78 | 76 | 2.6 | 11.3 | 0.00 | 0.50 | 0.95 | 73 | 1017.1 |
| 20260509012509 | 79 | 57 | 0.0 | 9.6 | 0.00 | 0.50 | 0.95 | 72 | 1016.7 |
| 20260509012009 | 79 | 94 | 7.0 | 9.6 | 0.00 | 0.50 | 0.95 | 72 | 1016.7 |
| 20260509011509 | 79 | 60 | 6.1 | 9.6 | 0.00 | 0.50 | 0.95 | 72 | 1017.1 |
| 20260509011009 | 78 | 49 | 5.2 | 8.7 | 0.00 | 0.50 | 0.95 | 74 | 1017.0 |
| 20260509010747 | 79 | 67 | 3.5 | 11.3 | 0.00 | 0.50 | 0.95 | 74 | 1016.9 |
| 20260509010510 | 79 | 67 | 7.0 | 8.7 | 0.00 | 0.50 | 0.95 | 73 | 1017.1 |
| 20260509005510 | 79 | 49 | 5.2 | 11.3 | 0.00 | 0.50 | 0.95 | 72 | 1016.8 |
| 20260509005009 | 79 | 77 | 5.2 | 11.3 | 0.00 | 0.50 | 0.95 | 73 | 1016.9 |
| 20260509004741 | 80 | 81 | 2.6 | 11.3 | 0.00 | 0.50 | 0.95 | 72 | 1016.9 |
| 20260509004009 | 80 | 63 | 7.0 | 8.7 | 0.00 | 0.50 | 0.95 | 72 | 1017.0 |
| 20260509003510 | 80 | 106 | 2.6 | 9.6 | 0.00 | 0.50 | 0.95 | 72 | 1017.1 |
| 20260509003010 | 79 | 96 | 6.1 | 9.6 | 0.00 | 0.50 | 0.95 | 73 | 1017.1 |
| 20260509002510 | 79 | 62 | 3.5 | 8.7 | 0.00 | 0.50 | 0.95 | 75 | 1017.3 |
| 20260509002240 | 79 | 98 | 4.3 | 11.3 | 0.00 | 0.50 | 0.95 | 74 | 1017.3 |
| 20260509001740 | 78 | 46 | 0.0 | 11.3 | 0.00 | 0.50 | 0.95 | 75 | 1017.3 |
| 20260509001009 | 78 | 71 | 0.9 | 9.6 | 0.00 | 0.50 | 0.95 | 74 | 1017.3 |
| 20260509000509 | 79 | 89 | 6.1 | 9.6 | 0.00 | 0.50 | 0.95 | 73 | 1017.4 |
| 20260509000009 | 79 | 89 | 0.9 | 8.7 | 0.00 | 0.50 | 0.95 | 72 | 1017.4 |
| 20260508235509 | 79 | 114 | 4.3 | 11.3 | 0.00 | 0.50 | 0.95 | 73 | 1017.4 |
| 20260508235008 | 79 | 71 | 4.3 | 11.3 | 0.00 | 0.50 | 0.95 | 73 | 1017.4 |
| 20260508234740 | 79 | 79 | 7.0 | 11.3 | 0.00 | 0.50 | 0.95 | 74 | 1017.3 |
| 20260508234009 | 79 | 60 | 2.6 | 9.6 | 0.00 | 0.50 | 0.95 | 74 | 1017.4 |
| 20260508233739 | 79 | 98 | 4.3 | 9.6 | 0.00 | 0.50 | 0.95 | 74 | 1017.6 |
| 20260508233239 | 79 | 41 | 4.3 | 8.7 | 0.00 | 0.50 | 0.95 | 75 | 1017.6 |
| 20260508232509 | 79 | 86 | 5.2 | 11.3 | 0.00 | 0.50 | 0.95 | 74 | 1017.7 |
| 20260508232008 | 79 | 73 | 7.8 | 11.3 | 0.00 | 0.50 | 0.95 | 72 | 1017.7 |
| 20260508231740 | 79 | 66 | 1.7 | 9.6 | 0.00 | 0.50 | 0.95 | 73 | 1017.8 |
| 20260508231239 | 80 | 58 | 3.5 | 9.6 | 0.00 | 0.50 | 0.95 | 75 | 1017.9 |
| 20260508230509 | 80 | 87 | 0.0 | 11.3 | 0.00 | 0.50 | 0.95 | 73 | 1018.0 |
| 20260508230008 | 79 | 36 | 3.5 | 11.3 | 0.00 | 0.50 | 0.95 | 75 | 1017.8 |
| 20260508225509 | 79 | 75 | 4.3 | 12.2 | 0.00 | 0.50 | 0.95 | 76 | 1017.7 |
| 20260508225009 | 79 | 81 | 6.1 | 12.2 | 0.00 | 0.50 | 0.95 | 75 | 1017.8 |
| 20260508224508 | 80 | 85 | 0.0 | 11.3 | 0.00 | 0.50 | 0.95 | 75 | 1018.0 |
| 20260508224008 | 80 | 50 | 2.6 | 9.6 | 0.00 | 0.50 | 0.95 | 75 | 1018.1 |
| 20260508223509 | 80 | 88 | 0.9 | 11.3 | 0.00 | 0.50 | 0.95 | 76 | 1018.2 |
| 20260508223009 | 79 | 74 | 6.1 | 11.3 | 0.00 | 0.50 | 0.95 | 76 | 1018.1 |
| 20260508222509 | 78 | 52 | 0.9 | 12.2 | 0.00 | 0.50 | 0.95 | 76 | 1018.3 |
| 20260508222240 | 78 | 89 | 7.0 | 12.2 | 0.00 | 0.50 | 0.95 | 75 | 1018.3 |
| 20260508221508 | 79 | 65 | 7.0 | 11.3 | 0.00 | 0.50 | 0.95 | 75 | 1018.1 |
| 20260508221011 | 79 | 65 | 0.0 | 8.7 | 0.00 | 0.50 | 0.95 | 77 | 1018.3 |
| 20260508220739 | 79 | 121 | 2.6 | 9.6 | 0.00 | 0.50 | 0.95 | 76 | 1018.3 |
| 20260508220008 | 79 | 82 | 5.2 | 11.3 | 0.00 | 0.50 | 0.95 | 76 | 1018.3 |
| 20260508215740 | 78 | 63 | 3.5 | 12.2 | 0.00 | 0.50 | 0.95 | 76 | 1018.4 |
| 20260508215009 | 78 | 83 | 6.1 | 12.2 | 0.00 | 0.50 | 0.95 | 76 | 1018.4 |
| 20260508214509 | 78 | 92 | 7.8 | 11.3 | 0.00 | 0.50 | 0.95 | 77 | 1018.4 |
| 20260508214009 | 78 | 82 | 7.0 | 9.6 | 0.00 | 0.50 | 0.95 | 77 | 1018.4 |
| 20260508213509 | 77 | 117 | 0.0 | 7.0 | 0.00 | 0.50 | 0.95 | 80 | 1018.4 |
| 20260508213009 | 77 | 37 | 0.0 | 7.8 | 0.00 | 0.50 | 0.95 | 79 | 1018.6 |
| 20260508212508 | 77 | 87 | 0.0 | 7.8 | 0.00 | 0.50 | 0.95 | 78 | 1018.7 |
| 20260508212008 | 77 | 47 | 0.0 | 7.8 | 0.00 | 0.50 | 0.95 | 79 | 1019.0 |
| 20260508211509 | 77 | 70 | 0.0 | 7.8 | 0.00 | 0.50 | 0.95 | 78 | 1018.9 |
| 20260508211241 | 77 | 75 | 0.0 | 7.0 | 0.00 | 0.50 | 0.95 | 77 | 1018.7 |
| 20260508210509 | 77 | 66 | 0.0 | 7.0 | 0.00 | 0.50 | 0.95 | 78 | 1019.1 |
| 20260508210009 | 78 | 64 | 0.0 | 5.2 | 0.00 | 0.50 | 0.95 | 79 | 1019.2 |
| 20260508205509 | 78 | 67 | 0.0 | 5.2 | 0.00 | 0.50 | 0.95 | 77 | 1019.2 |
| 20260508205008 | 78 | 23 | 0.0 | 4.3 | 0.00 | 0.50 | 0.95 | 79 | 1019.1 |
| 20260508204508 | 78 | 118 | 0.0 | 4.3 | 0.00 | 0.50 | 0.95 | 79 | 1019.5 |
| 20260508204008 | 77 | 60 | 0.0 | 3.5 | 0.00 | 0.50 | 0.95 | 78 | 1019.3 |
| 20260508203508 | 77 | 198 | 0.0 | 0.0 | 0.00 | 0.50 | 0.95 | 80 | 1019.3 |
| 20260508203008 | 77 | 198 | 0.0 | 0.0 | 0.00 | 0.50 | 0.95 | 82 | 1019.4 |
| 20260508202509 | 76 | 208 | 0.0 | 1.7 | 0.00 | 0.50 | 0.95 | 83 | 1019.4 |
| 20260508202009 | 76 | 208 | 0.0 | 1.7 | 0.00 | 0.50 | 0.95 | 84 | 1019.4 |
| 20260508201509 | 75 | 208 | 0.0 | 0.0 | 0.00 | 0.50 | 0.95 | 85 | 1019.5 |
| 20260508201009 | 75 | 223 | 0.0 | 0.0 | 0.00 | 0.50 | 0.95 | 85 | 1019.6 |
| 20260508200508 | 75 | 223 | 0.0 | 0.0 | 0.00 | 0.50 | 0.95 | 88 | 1019.7 |
| 20260508200009 | 74 | 223 | 0.0 | 0.0 | 0.00 | 0.50 | 0.95 | 88 | 1019.3 |
| 20260508195508 | 74 | 223 | 0.0 | 0.0 | 0.00 | 0.50 | 0.95 | 89 | 1019.6 |
| 20260508195009 | 74 | 223 | 0.0 | 0.0 | 0.00 | 0.50 | 0.95 | 89 | 1019.4 |
| 20260508194727 | 74 | 223 | 0.0 | 0.0 | 0.00 | 0.50 | 0.95 | 89 | 1019.6 |
| 20260508193956 | 73 | 223 | 0.0 | 0.9 | 0.00 | 0.50 | 0.95 | 89 | 1019.6 |
| 20260508193447 | 73 | 223 | 0.0 | 0.9 | 0.00 | 0.50 | 0.95 | 89 | 1019.6 |
| 20260508192945 | 73 | 223 | 0.0 | 0.0 | 0.00 | 0.50 | 0.95 | 90 | 1019.7 |
| 20260508192445 | 73 | 233 | 0.0 | 0.0 | 0.00 | 0.50 | 0.95 | 92 | 1019.4 |
| 20260508191947 | 73 | 233 | 0.0 | 0.0 | 0.00 | 0.50 | 0.95 | 92 | 1019.3 |
| 20260508191446 | 72 | 233 | 0.0 | 1.7 | 0.00 | 0.50 | 0.95 | 93 | 1019.3 |
| 20260508190944 | 72 | 233 | 0.0 | 1.7 | 0.00 | 0.50 | 0.95 | 92 | 1019.3 |
| 20260508190445 | 72 | 233 | 0.0 | 0.0 | 0.00 | 0.50 | 0.95 | 93 | 1019.3 |
| 20260508185945 | 71 | 233 | 0.0 | 0.0 | 0.00 | 0.50 | 0.95 | 93 | 1019.1 |
| 20260508185446 | 71 | 233 | 0.0 | 0.0 | 0.00 | 0.50 | 0.95 | 93 | 1019.4 |
| 20260508184944 | 71 | 233 | 0.0 | 0.0 | 0.00 | 0.50 | 0.95 | 93 | 1019.4 |
| 20260508184444 | 71 | 233 | 0.0 | 0.0 | 0.00 | 0.50 | 0.95 | 93 | 1019.3 |
| 20260508183944 | 70 | 233 | 0.0 | 0.0 | 0.00 | 0.50 | 0.95 | 93 | 1019.2 |
| 20260508183433 | 70 | 233 | 0.0 | 0.0 | 0.00 | 0.50 | 0.95 | 93 | 1019.0 |
| 20260508182933 | 70 | 233 | 0.0 | 0.0 | 0.01 | 0.50 | 0.95 | 93 | 1019.2 |
| 20260508182433 | 69 | 232 | 0.0 | 0.0 | 0.01 | 0.50 | 0.95 | 93 | 1019.2 |
| 20260508181932 | 69 | 232 | 0.0 | 0.0 | 0.02 | 0.49 | 0.95 | 93 | 1019.6 |
| 20260508181433 | 69 | 232 | 0.0 | 0.0 | 0.02 | 0.49 | 0.95 | 93 | 1019.2 |
| 20260508180932 | 69 | 238 | 0.0 | 0.9 | 0.02 | 0.49 | 0.95 | 93 | 1019.4 |
| 20260508180432 | 69 | 243 | 0.0 | 3.5 | 0.02 | 0.49 | 0.95 | 93 | 1019.3 |
| 20260508175921 | 69 | 220 | 0.0 | 3.5 | 0.02 | 0.49 | 0.95 | 93 | 1019.5 |
| 20260508175653 | 68 | 224 | 0.0 | 0.0 | 0.02 | 0.49 | 0.95 | 93 | 1019.5 |
| 20260508174920 | 68 | 225 | 0.0 | 0.0 | 0.02 | 0.49 | 0.95 | 93 | 1019.3 |
| 20260508174653 | 68 | 225 | 0.0 | 0.0 | 0.02 | 0.49 | 0.95 | 93 | 1019.3 |
| 20260508173920 | 68 | 225 | 0.0 | 0.0 | 0.02 | 0.49 | 0.95 | 93 | 1019.3 |
| 20260508173426 | 68 | 235 | 0.0 | 0.0 | 0.04 | 0.49 | 0.94 | 93 | 1019.4 |
| 20260508173420 | 68 | 225 | 0.0 | 0.0 | 0.03 | 0.49 | 0.95 | 93 | 1019.4 |
| 20260508172421 | 67 | 232 | 0.0 | 0.0 | 0.03 | 0.48 | 0.94 | 93 | 1019.4 |
| 20260508171921 | 67 | 239 | 0.0 | 0.0 | 0.02 | 0.47 | 0.93 | 93 | 1019.4 |
| 20260508171420 | 67 | 226 | 0.0 | 0.0 | 0.03 | 0.47 | 0.93 | 92 | 1019.2 |
| 20260508170927 | 67 | 249 | 0.0 | 0.0 | 0.06 | 0.47 | 0.93 | 92 | 1018.8 |
| 20260508170921 | 67 | 226 | 0.0 | 0.0 | 0.04 | 0.47 | 0.93 | 92 | 1018.9 |
| 20260508165909 | 67 | 251 | 0.0 | 0.0 | 0.12 | 0.47 | 0.93 | 92 | 1018.9 |
| 20260508165403 | 67 | 245 | 0.0 | 0.0 | 0.13 | 0.47 | 0.93 | 92 | 1018.8 |
| 20260508164857 | 67 | 250 | 0.0 | 0.0 | 0.16 | 0.47 | 0.93 | 92 | 1018.9 |
| 20260508164357 | 67 | 239 | 0.0 | 0.0 | 0.22 | 0.47 | 0.93 | 92 | 1018.7 |
| 20260508163857 | 67 | 239 | 0.0 | 0.0 | 0.25 | 0.47 | 0.93 | 92 | 1018.8 |
| 20260508163358 | 67 | 239 | 0.0 | 0.0 | 0.31 | 0.46 | 0.92 | 92 | 1018.7 |
| 20260508162851 | 67 | 239 | 0.0 | 0.0 | 0.35 | 0.45 | 0.91 | 92 | 1018.9 |
| 20260508162351 | 67 | 235 | 0.0 | 0.0 | 0.45 | 0.45 | 0.91 | 92 | 1018.7 |
| 20260508161851 | 67 | 236 | 0.0 | 0.0 | 0.44 | 0.44 | 0.90 | 92 | 1018.6 |
| 20260508161346 | 67 | 239 | 0.0 | 5.2 | 0.44 | 0.44 | 0.90 | 92 | 1018.3 |
| 20260508160845 | 67 | 289 | 0.0 | 5.2 | 0.44 | 0.44 | 0.89 | 92 | 1018.2 |
| 20260508160344 | 67 | 224 | 3.5 | 4.3 | 0.41 | 0.41 | 0.87 | 92 | 1018.1 |
| 20260508160340 | 67 | 279 | 0.0 | 4.3 | 0.35 | 0.35 | 0.81 | 92 | 1018.1 |
| 20260508155330 | 67 | 282 | 1.7 | 7.0 | 0.34 | 0.34 | 0.80 | 92 | 1018.0 |
| 20260508154821 | 67 | 210 | 0.0 | 7.8 | 0.31 | 0.31 | 0.77 | 92 | 1017.9 |
| 20260508154311 | 67 | 225 | 1.7 | 7.8 | 0.25 | 0.25 | 0.70 | 92 | 1018.0 |
| 20260508153809 | 67 | 212 | 1.7 | 5.2 | 0.22 | 0.22 | 0.68 | 92 | 1017.7 |
| 20260508153307 | 67 | 237 | 0.0 | 7.0 | 0.14 | 0.14 | 0.61 | 92 | 1017.9 |
| 20260508152803 | 67 | 242 | 2.6 | 7.0 | 0.07 | 0.07 | 0.54 | 92 | 1017.8 |
| 20260508152242 | 67 | 0.0 | 0.0 | 0.00 | 0.00 | 0.14 | 92 | ||
| 20260508144516 | 68 | 252 | 3.5 | 4.3 | 0.09 | 0.14 | 0.14 | 91 | 1017.3 |
| 20260508143946 | 68 | 202 | 0.0 | 5.2 | 0.10 | 0.14 | 0.14 | 91 | 1017.6 |
| 20260508143433 | 68 | 224 | 0.0 | 5.2 | 0.10 | 0.14 | 0.14 | 91 | 1017.4 |
| 20260508142934 | 68 | 212 | 0.0 | 7.8 | 0.10 | 0.14 | 0.14 | 91 | 1017.4 |
| 20260508142434 | 69 | 235 | 0.0 | 7.8 | 0.10 | 0.14 | 0.14 | 90 | 1017.4 |
| 20260508141923 | 69 | 201 | 0.0 | 5.2 | 0.09 | 0.13 | 0.14 | 91 | 1017.3 |
| 20260508141422 | 68 | 243 | 0.0 | 7.8 | 0.08 | 0.12 | 0.13 | 89 | 1017.3 |
| 20260508140922 | 68 | 265 | 0.9 | 7.8 | 0.08 | 0.12 | 0.12 | 89 | 1017.5 |
| 20260508140422 | 68 | 321 | 0.0 | 0.0 | 0.06 | 0.10 | 0.10 | 88 | 1017.5 |
| 20260508135922 | 69 | 205 | 0.0 | 9.6 | 0.04 | 0.08 | 0.09 | 88 | 1017.8 |
| 20260508135422 | 69 | 305 | 0.0 | 9.6 | 0.02 | 0.06 | 0.07 | 88 | 1017.6 |
| 20260508134921 | 69 | 222 | 0.9 | 7.8 | 0.02 | 0.06 | 0.06 | 88 | 1017.8 |
| 20260508134409 | 69 | 135 | 0.0 | 7.8 | 0.02 | 0.04 | 0.04 | 88 | 1017.7 |
| 20260508134140 | 70 | 200 | 0.0 | 4.3 | 0.02 | 0.04 | 0.04 | 88 | 1017.7 |
| 20260508133410 | 70 | 294 | 0.0 | 4.3 | 0.02 | 0.04 | 0.04 | 88 | 1017.5 |
| 20260508133141 | 71 | 216 | 0.0 | 7.8 | 0.02 | 0.04 | 0.04 | 88 | 1017.6 |
| 20260508132409 | 71 | 225 | 0.0 | 7.8 | 0.02 | 0.04 | 0.04 | 88 | 1017.7 |
| 20260508131910 | 72 | 223 | 0.0 | 4.3 | 0.02 | 0.04 | 0.04 | 88 | 1017.7 |
| 20260508131410 | 72 | 233 | 0.0 | 4.3 | 0.02 | 0.04 | 0.04 | 88 | 1017.8 |
| 20260508130857 | 73 | 191 | 0.0 | 5.2 | 0.02 | 0.04 | 0.04 | 88 | 1017.7 |
| 20260508130358 | 73 | 115 | 0.0 | 8.7 | 0.02 | 0.04 | 0.04 | 88 | 1017.8 |
| 20260508125859 | 73 | 80 | 0.0 | 8.7 | 0.03 | 0.04 | 0.04 | 89 | 1017.6 |
| 20260508125628 | 73 | 70 | 0.0 | 7.8 | 0.04 | 0.04 | 0.04 | 89 | 1017.4 |
| 20260508124858 | 73 | 56 | 0.0 | 9.6 | 0.03 | 0.03 | 0.03 | 88 | 1017.3 |
| 20260508124358 | 73 | 75 | 4.3 | 9.6 | 0.02 | 0.02 | 0.02 | 88 | 1017.5 |
| 20260508124128 | 73 | 91 | 0.9 | 9.6 | 0.02 | 0.02 | 0.02 | 88 | 1017.9 |
| 20260508123358 | 73 | 86 | 3.5 | 12.2 | 0.02 | 0.02 | 0.02 | 88 | 1017.7 |
| 20260508122839 | 73 | 63 | 2.6 | 11.3 | 0.02 | 0.02 | 0.02 | 88 | 1018.0 |
| 20260508122334 | 73 | 59 | 2.6 | 12.2 | 0.02 | 0.02 | 0.02 | 88 | 1017.9 |
| 20260508121821 | 73 | 62 | 5.2 | 8.7 | 0.02 | 0.02 | 0.02 | 89 | 1017.8 |
| 20260508121322 | 73 | 24 | 4.3 | 11.3 | 0.02 | 0.02 | 0.02 | 88 | 1018.2 |
| 20260508120821 | 73 | 40 | 2.6 | 12.2 | 0.02 | 0.02 | 0.02 | 88 | 1018.0 |
| 20260508120321 | 73 | 68 | 7.0 | 13.9 | 0.02 | 0.02 | 0.02 | 88 | 1018.1 |
| 20260508115821 | 74 | 71 | 7.0 | 13.9 | 0.00 | 0.00 | 0.01 | 86 | 1018.4 |
| 20260508115320 | 74 | 57 | 0.0 | 12.2 | 0.00 | 0.00 | 0.00 | 86 | 1018.4 |
| 20260508114820 | 74 | 76 | 3.5 | 11.3 | 0.00 | 0.00 | 0.00 | 85 | 1018.5 |
| 20260508114322 | 74 | 37 | 6.1 | 9.6 | 0.00 | 0.00 | 0.00 | 85 | 1018.4 |
| 20260508114308 | 74 | 76 | 4.3 | 11.3 | 0.00 | 0.00 | 0.00 | 85 | 1018.5 |
| 20260508114059 | 74 | 76 | 4.3 | 11.3 | 0.00 | 0.00 | 0.00 | 85 | 1018.5 |
| 20260508114054 | 74 | 44 | 7.8 | 9.6 | 0.00 | 0.00 | 0.00 | 85 | 1018.5 |
| 20260508113827 | 74 | 44 | 7.8 | 9.6 | 0.00 | 0.00 | 0.00 | 85 | 1018.5 |
| 20260508113539 | 74 | 76 | 4.3 | 11.3 | 0.00 | 0.00 | 0.00 | 85 | 1018.5 |
| 20260508112804 | 74 | 41 | 0.0 | 11.3 | 0.00 | 0.00 | 0.00 | 84 | 1018.6 |
| 20260508112307 | 74 | 83 | 5.2 | 13.9 | 0.00 | 0.00 | 0.00 | 83 | 1018.5 |
| 20260508111752 | 74 | 95 | 7.8 | 13.9 | 0.00 | 0.00 | 0.00 | 83 | 1018.6 |
| 20260508111252 | 74 | 73 | 7.8 | 12.2 | 0.00 | 0.00 | 0.00 | 84 | 1018.5 |
| 20260508111022 | 75 | 85 | 7.0 | 13.0 | 0.00 | 0.00 | 0.00 | 84 | 1018.4 |
| 20260508110533 | 74 | 74 | 6.1 | 13.9 | 0.00 | 0.00 | 0.00 | 83 | 1018.5 |
| 20260508110236 | 75 | 74 | 7.0 | 9.6 | 0.00 | 0.00 | 0.00 | 83 | 1018.6 |
| 20260508110029 | 74 | 64 | 7.0 | 13.9 | 0.00 | 0.00 | 0.00 | 83 | 1018.8 |
| 20260508105806 | 74 | 64 | 7.0 | 13.9 | 0.00 | 0.00 | 0.00 | 83 | 1018.8 |
| 20260508105522 | 75 | 74 | 7.0 | 9.6 | 0.00 | 0.00 | 0.00 | 83 | 1018.6 |
| 20260508104237 | 75 | 88 | 3.5 | 9.6 | 0.00 | 0.00 | 0.00 | 81 | 1018.6 |
| 20260508103453 | 75 | 71 | 6.1 | 9.6 | 0.00 | 0.00 | 0.00 | 81 | 1018.7 |
| 20260508103448 | 75 | 77 | 3.5 | 5.2 | 0.00 | 0.00 | 0.00 | 82 | 1018.7 |
| 20260508103243 | 75 | 77 | 3.5 | 5.2 | 0.00 | 0.00 | 0.00 | 82 | 1018.7 |
| 20260508101714 | 75 | 2 | 3.5 | 13.0 | 0.00 | 0.00 | 0.00 | 81 | 1018.8 |
| 20260508101011 | 75 | 93 | 0.0 | 9.6 | 0.00 | 0.00 | 0.00 | 81 | 1018.8 |
| 20260508100942 | 75 | 70 | 7.0 | 12.2 | 0.00 | 0.00 | 0.00 | 81 | 1018.8 |
| 20260508100443 | 75 | 93 | 0.0 | 9.6 | 0.00 | 0.00 | 0.00 | 81 | 1018.8 |
| 20260508100201 | 75 | 65 | 2.6 | 11.3 | 0.00 | 0.00 | 0.04 | 82 | 1018.9 |
| 20260508095935 | 75 | 65 | 2.6 | 11.3 | 0.00 | 0.00 | 0.04 | 82 | 1018.9 |
| 20260508095723 | 75 | 88 | 3.5 | 12.2 | 0.00 | 0.00 | 0.04 | 81 | 1019.1 |
| 20260508095457 | 75 | 88 | 3.5 | 12.2 | 0.00 | 0.00 | 0.04 | 81 | 1019.1 |
| 20260508094913 | 75 | 115 | 3.5 | 12.2 | 0.00 | 0.00 | 0.04 | 81 | 1019.0 |
| 20260508094407 | 75 | 0.0 | 0.0 | 0.00 | 0.00 | 0.04 | 80 | ||
| 20260508094129 | 75 | 48 | 4.3 | 12.2 | 0.00 | 0.00 | 0.04 | 81 | 1019.1 |
| 20260508093910 | 75 | 48 | 4.3 | 12.2 | 0.00 | 0.00 | 0.04 | 81 | 1019.1 |
| 20260508093300 | 75 | 76 | 2.6 | 11.3 | 0.00 | 0.00 | 0.04 | 80 | 1019.4 |
| 20260508091948 | 75 | 70 | 8.7 | 11.3 | 0.00 | 0.00 | 0.04 | 80 | 1019.5 |
| 20260508091707 | 75 | 84 | 0.9 | 3.5 | 0.00 | 0.00 | 0.04 | 80 | 1019.6 |
| 20260508091436 | 75 | 84 | 0.9 | 3.5 | 0.00 | 0.00 | 0.04 | 80 | 1019.6 |
| 20260508085934 | 0 | 0.0 | 0.0 | 0.00 | 0.04 | 0.04 | |||
| 20260508085844 | 75 | 62 | 5.2 | 7.8 | 0.00 | 0.04 | 0.04 | 80 | 1019.6 |
| 20260508084222 | 75 | 79 | 0.0 | 11.3 | 0.00 | 0.04 | 0.04 | 81 | 1019.3 |
| 20260508084210 | 75 | 36 | 0.0 | 8.7 | 0.00 | 0.04 | 0.04 | 82 | 1019.6 |
| 20260508083737 | 75 | 75 | 5.2 | 11.3 | 0.00 | 0.04 | 0.04 | 81 | 1019.3 |
| 20260508082946 | 75 | 59 | 7.0 | 7.8 | 0.00 | 0.04 | 0.04 | 81 | 1019.3 |
| 20260508082719 | 75 | 59 | 7.0 | 7.8 | 0.00 | 0.04 | 0.04 | 81 | 1019.3 |
| 20260508081856 | 75 | 74 | 4.3 | 11.3 | 0.00 | 0.04 | 0.04 | 81 | 1019.3 |
| 20260508080825 | 75 | 64 | 9.6 | 13.0 | 0.00 | 0.04 | 0.04 | 80 | 1019.5 |
| 20260508080810 | 75 | 75 | 5.2 | 13.0 | 0.00 | 0.04 | 0.04 | 80 | 1019.3 |
| 20260508080559 | 75 | 64 | 9.6 | 13.0 | 0.00 | 0.04 | 0.04 | 80 | 1019.5 |
| 20260508080318 | 75 | 64 | 9.6 | 13.0 | 0.00 | 0.04 | 0.04 | 80 | 1019.5 |
| 20260508075807 | 75 | 114 | 0.9 | 9.6 | 0.00 | 0.04 | 0.04 | 80 | 1019.5 |
| 20260508075314 | 75 | 98 | 4.3 | 12.2 | 0.00 | 0.04 | 0.04 | 80 | 1019.4 |
| 20260508075309 | 75 | 90 | 7.0 | 9.6 | 0.00 | 0.04 | 0.04 | 81 | 1019.6 |
| 20260508074307 | 75 | 119 | 0.0 | 12.2 | 0.00 | 0.04 | 0.04 | 80 | 1019.4 |
| 20260508073809 | 75 | 99 | 4.3 | 9.6 | 0.00 | 0.04 | 0.04 | 80 | 1019.6 |
| 20260508073307 | 75 | 85 | 0.0 | 11.3 | 0.00 | 0.04 | 0.04 | 80 | 1019.5 |
| 20260508072807 | 75 | 94 | 0.0 | 11.3 | 0.00 | 0.04 | 0.04 | 80 | 1019.3 |
| 20260508072308 | 75 | 79 | 0.0 | 11.3 | 0.00 | 0.04 | 0.04 | 80 | 1019.3 |
| 20260508071810 | 75 | 76 | 7.0 | 11.3 | 0.00 | 0.04 | 0.04 | 80 | 1019.2 |
| 20260508071308 | 75 | 80 | 4.3 | 11.3 | 0.00 | 0.04 | 0.04 | 79 | 1019.2 |
| 20260508070807 | 75 | 104 | 5.2 | 11.3 | 0.00 | 0.04 | 0.04 | 79 | 1019.2 |
| 20260508070307 | 75 | 78 | 3.5 | 12.2 | 0.00 | 0.04 | 0.04 | 80 | 1019.0 |
| 20260508065808 | 75 | 73 | 4.3 | 12.2 | 0.00 | 0.04 | 0.04 | 80 | 1019.3 |
| 20260508065308 | 75 | 97 | 0.0 | 8.7 | 0.00 | 0.04 | 0.04 | 80 | 1018.9 |
| 20260508064808 | 75 | 73 | 0.9 | 11.3 | 0.00 | 0.04 | 0.04 | 80 | 1018.9 |
| 20260508064308 | 75 | 119 | 3.5 | 11.3 | 0.00 | 0.04 | 0.04 | 80 | 1018.8 |
| 20260508063808 | 75 | 82 | 3.5 | 11.3 | 0.00 | 0.04 | 0.04 | 80 | 1019.0 |
| 20260508063308 | 75 | 73 | 3.5 | 11.3 | 0.00 | 0.04 | 0.04 | 80 | 1018.8 |
| 20260508062807 | 75 | 78 | 1.7 | 9.6 | 0.00 | 0.04 | 0.04 | 80 | 1018.9 |
| 20260508062307 | 75 | 69 | 3.5 | 9.6 | 0.00 | 0.04 | 0.04 | 80 | 1019.0 |
| 20260508061807 | 75 | 55 | 3.5 | 7.8 | 0.00 | 0.04 | 0.04 | 80 | 1018.7 |
| 20260508061538 | 75 | 77 | 6.1 | 7.8 | 0.00 | 0.04 | 0.04 | 79 | 1018.8 |
| 20260508061039 | 75 | 96 | 5.2 | 13.0 | 0.00 | 0.04 | 0.04 | 79 | 1018.7 |
| 20260508060308 | 75 | 48 | 0.0 | 13.0 | 0.00 | 0.04 | 0.04 | 79 | 1018.7 |
| 20260508055807 | 75 | 98 | 0.9 | 8.7 | 0.00 | 0.04 | 0.04 | 79 | 1018.6 |
| 20260508055307 | 75 | 63 | 6.1 | 7.8 | 0.00 | 0.04 | 0.04 | 79 | 1018.5 |
| 20260508055029 | 75 | 90 | 2.6 | 8.7 | 0.00 | 0.04 | 0.04 | 79 | 1018.5 |
| 20260508054903 | 75 | 90 | 0.0 | 8.7 | 0.00 | 0.04 | 0.04 | 79 | 1018.4 |
| 20260508053756 | 75 | 61 | 4.3 | 7.0 | 0.00 | 0.04 | 0.04 | 79 | 1018.5 |
| 20260508053256 | 75 | 86 | 2.6 | 8.7 | 0.00 | 0.04 | 0.04 | 79 | 1018.5 |
| 20260508052756 | 75 | 97 | 5.2 | 8.7 | 0.00 | 0.04 | 0.04 | 79 | 1018.4 |
| 20260508052526 | 75 | 93 | 4.3 | 9.6 | 0.00 | 0.04 | 0.04 | 79 | 1018.1 |
| 20260508051756 | 75 | 110 | 0.0 | 9.6 | 0.00 | 0.04 | 0.04 | 79 | 1018.4 |
| 20260508051256 | 75 | 43 | 0.0 | 7.8 | 0.00 | 0.04 | 0.04 | 78 | 1018.2 |
| 20260508050755 | 75 | 67 | 4.3 | 8.7 | 0.00 | 0.04 | 0.04 | 78 | 1018.1 |
| 20260508050244 | 75 | 100 | 4.3 | 8.7 | 0.00 | 0.04 | 0.04 | 78 | 1018.2 |
| 20260508045744 | 76 | 52 | 1.7 | 7.0 | 0.00 | 0.04 | 0.04 | 78 | 1018.1 |
| 20260508045515 | 76 | 103 | 0.0 | 9.6 | 0.00 | 0.04 | 0.04 | 77 | 1018.3 |
| 20260508044743 | 76 | 77 | 0.9 | 9.6 | 0.00 | 0.04 | 0.04 | 78 | 1017.9 |
| 20260508044246 | 76 | 85 | 0.9 | 9.6 | 0.00 | 0.04 | 0.04 | 77 | 1017.9 |
| 20260508044014 | 76 | 108 | 2.6 | 9.6 | 0.00 | 0.04 | 0.04 | 77 | 1017.8 |
| 20260508043232 | 76 | 18 | 0.0 | 8.7 | 0.00 | 0.04 | 0.04 | 77 | 1017.9 |
| 20260508042731 | 76 | 89 | 0.0 | 7.0 | 0.00 | 0.04 | 0.04 | 76 | 1018.0 |
| 20260508042232 | 76 | 90 | 0.0 | 7.8 | 0.00 | 0.04 | 0.04 | 76 | 1018.0 |
| 20260508041731 | 76 | 71 | 0.0 | 9.6 | 0.00 | 0.04 | 0.04 | 75 | 1017.7 |
| 20260508041231 | 76 | 101 | 0.9 | 9.6 | 0.00 | 0.04 | 0.04 | 76 | 1017.7 |
| 20260508041003 | 76 | 72 | 3.5 | 7.8 | 0.00 | 0.04 | 0.04 | 74 | 1017.5 |
| 20260508040231 | 76 | 102 | 2.6 | 7.8 | 0.00 | 0.04 | 0.04 | 74 | 1017.6 |
| 20260508035731 | 77 | 66 | 0.0 | 7.8 | 0.00 | 0.04 | 0.04 | 74 | 1017.6 |
| 20260508035219 | 76 | 121 | 2.6 | 7.8 | 0.00 | 0.04 | 0.04 | 73 | 1017.6 |
| 20260508034719 | 76 | 94 | 0.0 | 7.0 | 0.00 | 0.04 | 0.04 | 72 | 1017.7 |
| 20260508034452 | 76 | 90 | 0.0 | 7.8 | 0.00 | 0.04 | 0.04 | 72 | 1017.6 |
| 20260508033950 | 76 | 99 | 0.0 | 8.7 | 0.00 | 0.04 | 0.04 | 72 | 1017.6 |
| 20260508033219 | 77 | 66 | 0.0 | 8.7 | 0.00 | 0.04 | 0.04 | 71 | 1017.6 |
| 20260508032720 | 77 | 94 | 0.0 | 8.7 | 0.00 | 0.04 | 0.04 | 72 | 1017.6 |
| 20260508032219 | 77 | 64 | 6.1 | 9.6 | 0.00 | 0.04 | 0.04 | 73 | 1017.3 |
| 20260508031720 | 77 | 89 | 3.5 | 9.6 | 0.00 | 0.04 | 0.04 | 71 | 1017.5 |
| 20260508031220 | 77 | 105 | 0.9 | 7.8 | 0.00 | 0.04 | 0.04 | 70 | 1017.4 |
| 20260508030719 | 77 | 97 | 0.0 | 7.8 | 0.00 | 0.04 | 0.04 | 71 | 1017.5 |
| 20260508030219 | 78 | 90 | 5.2 | 8.7 | 0.00 | 0.04 | 0.04 | 71 | 1017.3 |
| 20260508025952 | 77 | 91 | 0.0 | 8.7 | 0.00 | 0.04 | 0.04 | 72 | 1017.3 |
| 20260508025220 | 77 | 94 | 0.9 | 8.7 | 0.00 | 0.04 | 0.04 | 73 | 1017.3 |
| 20260508024720 | 77 | 108 | 0.0 | 8.7 | 0.00 | 0.04 | 0.04 | 72 | 1017.3 |